| time (UTC) | temp C | wind direction | speed KPH | gust KPH | rain 1hr cm | rain 24hr cm | rain mn cm | humidity % | barometer mb |
| 20260505011543 | 17 | 172 | 0.0 | 0.0 | 0.00 | 0.00 | 0.23 | 62 | 1012.8 |
| 20260505004534 | 20 | 172 | 0.0 | 0.0 | 0.00 | 0.00 | 0.20 | 62 | 1012.6 |
| 20260505003031 | 20 | 172 | 0.0 | 0.0 | 0.00 | 0.00 | 0.20 | 61 | 1012.4 |
| 20260505001525 | 21 | 172 | 0.0 | 0.0 | 0.00 | 0.00 | 0.20 | 56 | 1012.3 |
| 20260505000021 | 22 | 172 | 0.0 | 0.0 | 0.00 | 0.00 | 0.20 | 54 | 1012.3 |
| 20260504234516 | 22 | 172 | 0.0 | 0.0 | 0.00 | 0.00 | 0.20 | 49 | 1012.4 |
| 20260504233012 | 22 | 172 | 0.0 | 0.0 | 0.00 | 0.00 | 0.20 | 49 | 1012.6 |
| 20260504231507 | 23 | 172 | 0.0 | 0.0 | 0.00 | 0.00 | 0.20 | 48 | 1012.6 |
| 20260504230005 | 23 | 172 | 0.0 | 0.0 | 0.00 | 0.00 | 0.20 | 47 | 1012.7 |
| 20260504224626 | 23 | 172 | 0.0 | 0.0 | 0.00 | 0.00 | 0.18 | 45 | 1012.8 |
| 20260504223055 | 23 | 172 | 0.0 | 0.0 | 0.00 | 0.00 | 0.18 | 48 | 1012.8 |
| 20260504221550 | 23 | 171 | 0.0 | 0.0 | 0.00 | 0.00 | 0.18 | 47 | 1012.9 |
| 20260504220053 | 23 | 171 | 0.0 | 0.0 | 0.00 | 0.00 | 0.18 | 49 | 1013.0 |
| 20260504214545 | 23 | 171 | 0.0 | 0.0 | 0.00 | 0.00 | 0.18 | 48 | 1013.2 |
| 20260504213039 | 23 | 171 | 0.0 | 0.0 | 0.00 | 0.00 | 0.18 | 46 | 1013.1 |
| 20260504211534 | 23 | 216 | 0.0 | 0.0 | 0.00 | 0.00 | 0.18 | 47 | 1013.2 |
| 20260504210029 | 23 | 171 | 0.0 | 0.0 | 0.00 | 0.00 | 0.18 | 50 | 1013.3 |
| 20260504204523 | 23 | 173 | 0.0 | 0.0 | 0.00 | 0.00 | 0.18 | 47 | 1013.3 |
| 20260504203020 | 23 | 205 | 1.6 | 0.0 | 0.00 | 0.00 | 0.18 | 46 | 1013.4 |
| 20260504201516 | 23 | 167 | 0.0 | 0.0 | 0.00 | 0.00 | 0.15 | 46 | 1013.6 |
| 20260504200016 | 23 | 167 | 0.0 | 0.0 | 0.00 | 0.00 | 0.15 | 47 | 1013.9 |
| 20260504194509 | 23 | 167 | 0.0 | 0.0 | 0.00 | 0.00 | 0.15 | 50 | 1014.1 |
| 20260504193002 | 23 | 167 | 0.0 | 0.0 | 0.00 | 0.00 | 0.15 | 48 | 1014.2 |
| 20260504191614 | 23 | 165 | 0.0 | 0.0 | 0.00 | 0.00 | 0.15 | 49 | 1014.4 |
| 20260504190055 | 23 | 165 | 0.0 | 0.0 | 0.00 | 0.00 | 0.13 | 49 | 1014.6 |
| 20260504184550 | 22 | 165 | 0.0 | 0.0 | 0.00 | 0.00 | 0.13 | 48 | 1014.9 |
| 20260504183045 | 22 | 300 | 0.0 | 0.0 | 0.00 | 0.00 | 0.13 | 52 | 1015.2 |
| 20260504181541 | 22 | 170 | 0.0 | 0.0 | 0.00 | 0.00 | 0.13 | 50 | 1015.3 |
| 20260504180037 | 23 | 170 | 0.0 | 0.0 | 0.00 | 0.00 | 0.13 | 53 | 1015.5 |
| 20260504174532 | 22 | 170 | 0.0 | 0.0 | 0.00 | 0.00 | 0.10 | 51 | 1015.5 |
| 20260504173027 | 22 | 190 | 0.0 | 0.0 | 0.00 | 0.00 | 0.10 | 55 | 1015.8 |
| 20260504171523 | 22 | 190 | 0.0 | 0.0 | 0.00 | 0.00 | 0.10 | 53 | 1016.2 |
| 20260504120119 | 6 | 293 | 0.0 | 0.0 | 0.00 | 0.00 | 0.05 | 100 | 1017.6 |
| 20260504081548 | 6 | 293 | 0.0 | 0.0 | 0.00 | 0.00 | 0.03 | 100 | 1017.0 |
| 20260504044547 | 7 | 293 | 0.0 | 0.0 | 0.00 | 0.00 | 0.18 | 100 | 1018.1 |
| 20260504043102 | 8 | 293 | 0.0 | 0.0 | 0.00 | 0.00 | 0.18 | 100 | 1018.3 |
| 20260504041537 | 8 | 293 | 0.0 | 0.0 | 0.00 | 0.00 | 0.18 | 100 | 1018.3 |
| 20260504040033 | 8 | 293 | 0.0 | 0.0 | 0.00 | 0.00 | 0.18 | 100 | 1018.4 |
| 20260504034528 | 9 | 293 | 0.0 | 0.0 | 0.00 | 0.00 | 0.18 | 100 | 1018.6 |
| 20260504033023 | 9 | 293 | 0.0 | 0.0 | 0.00 | 0.00 | 0.18 | 100 | 1018.6 |
| 20260504031520 | 10 | 293 | 0.0 | 0.0 | 0.00 | 0.00 | 0.18 | 100 | 1018.6 |
| 20260504030017 | 10 | 293 | 0.0 | 0.0 | 0.00 | 0.00 | 0.18 | 1 | 1018.4 |
| 20260504024511 | 10 | 293 | 0.0 | 0.0 | 0.00 | 0.00 | 0.18 | 10 | 1018.4 |
| 20260504023008 | 11 | 293 | 0.0 | 0.0 | 0.00 | 0.00 | 0.18 | 23 | 1018.2 |
| 20260504021506 | 11 | 293 | 0.0 | 0.0 | 0.00 | 0.00 | 0.18 | 30 | 1018.1 |
| 20260504020106 | 12 | 293 | 0.0 | 0.0 | 0.00 | 0.00 | 0.15 | 40 | 1017.9 |
| 20260504014604 | 12 | 293 | 0.0 | 0.0 | 0.00 | 0.00 | 0.15 | 48 | 1017.8 |
| 20260504013053 | 13 | 293 | 0.0 | 0.0 | 0.00 | 0.00 | 0.15 | 54 | 1017.6 |